GFSMA_con_mlcape_273.txt.gz
CAPE
242 31 38 141 141 93 35 28 83 58 84 152 124 154 126 186 324 134 204 153 285 99 429 690 791 792 1197 1409 1570 1690 1415 1501 1516 1403 1448 1135 806 939 1051 971 663 1015 1058
434 504 137 132 283 432 310 86 38 128 116 202 212 116 206 208 286 316 275 225 339 42 173 184 651 1140 1421 1720 1431 1411 1688 1239 1234 1492 1569 1301 936 381 416 578 544 529 522
607 631 411 313 260 329 439 233 151 138 71 93 221 205 229 427 441 204 211 263 227 251 222 250 332 585 814 1133 1594 1415 1283 1481 1381 1078 1070 1384 1561 1310 689 521 585 749 908
764 745 468 330 328 607 655 513 331 260 144 84 200 316 276 129 193 444 290 303 296 442 339 250 382 312 533 757 1003 1285 1348 1215 1185 1280 964 733 837 1094 1015 836 908 1005 1076
1032 792 674 621 886 1024 863 701 592 551 335 147 154 322 245 73 13 73 284 320 260 370 198 394 596 351 178 474 1155 1312 1410 1265 1175 987 923 783 694 782 915 967 1066 1225 1322
1206 685 591 617 701 736 798 778 686 531 556 261 265 128 409 104 16 0 49 220 167 179 263 384 550 257 252 253 554 1497 1757 1700 1452 1181 956 851 748 712 732 875 948 1068 1205
1069 707 321 365 587 944 996 1028 757 667 570 434 246 282 203 209 103 60 21 241 287 285 290 453 413 350 408 338 468 553 1307 1608 1578 1276 1124 1101 964 778 684 633 687 744 797
339 185 145 327 362 521 452 679 824 765 503 389 266 144 111 242 282 210 157 173 426 242 241 270 484 599 460 416 438 294 500 803 1143 1539 1273 1148 1078 1105 942 703 627 625 669
462 487 421 682 954 697 654 719 555 357 308 309 281 146 102 102 104 192 37 58 295 520 366 265 319 479 531 331 431 416 202 296 335 725 1523 1635 1347 1117 1042 1066 970 789 860
541 930 849 1171 872 573 620 743 451 334 83 135 174 233 95 184 107 37 105 35 125 346 367 174 322 394 528 335 356 320 390 298 298 315 462 785 1199 1290 1065 1010 1079 1061 1067
1109 551 606 513 211 783 628 494 319 186 241 77 240 174 210 125 170 242 166 240 85 129 396 376 384 341 309 405 263 403 524 528 564 543 404 340 319 915 1201 1128 1037 977 983
270 239 138 599 312 321 355 542 331 193 139 123 232 195 195 194 163 123 129 174 201 155 243 351 375 467 404 337 544 445 529 634 656 647 669 439 338 575 895 1321 1194 1094 1083
59 62 50 113 150 213 374 317 281 357 137 162 155 126 166 193 190 162 82 80 112 169 147 187 284 484 655 288 350 318 220 832 788 690 625 518 579 430 481 717 1135 1250 1357
33 0 34 59 59 49 55 177 360 351 213 55 27 114 169 231 216 167 74 98 93 149 153 98 213 168 283 81 250 456 682 597 511 601 514 499 611 574 446 476 511 711 1255
15 135 159 111 70 21 38 14 216 306 214 217 118 27 1 52 43 62 67 122 147 143 126 126 22 260 120 115 303 209 239 272 248 494 345 397 392 509 451 447 501 380 420
55 218 120 2 0 0 0 0 87 0 0 28 116 132 120 91 19 7 53 73 91 133 80 148 171 217 221 209 200 72 5 23 221 166 110 202 289 284 314 366 422 459 456
214 129 52 0 0 0 0 10 0 0 0 0 0 1 4 22 58 69 11 12 15 25 15 15 46 123 16 101 133 47 24 0 7 50 67 77 39 106 209 209 268 331 391
205 70 40 9 0 0 0 0 0 0 0 0 0 0 0 0 0 0 11 12 0 0 0 5 43 1 1 25 44 52 58 32 10 58 3 25 133 107 53 39 134 180 211
557 149 59 11 7 3 0 0 0 0 0 0 0 0 0 0 0 0 0 0 0 9 0 0 0 35 82 90 19 36 33 57 33 0 0 84 49 0 54 13 34 35 92
581 360 5 49 0 27 0 0 0 0 0 0 0 0 0 0 0 3 10 3 0 0 3 0 0 7 23 16 3 1 0 6 48 109 167 200 105 169 43 22 11 14 4
842 509 114 0 0 1 12 0 0 0 0 0 0 0 0 0 0 0 0 5 24 10 3 0 0 0 6 2 0 0 6 14 54 140 176 164 202 155 123 64 39 7 4
252 88 0 0 0 0 0 0 0 0 0 0 0 0 0 0 0 0 0 0 10 19 27 30 11 0 10 0 0 0 1 30 2 132 78 90 207 166 230 107 136 48 10
68 0 0 0 0 0 0 0 0 0 4 0 0 0 0 0 0 0 0 0 3 23 39 50 37 42 40 34 55 72 52 36 36 74 110 90 117 52 109 191 56 1 0
0 0 0 0 0 0 0 0 0 0 0 0 0 0 0 0 0 0 0 0 0 0 0 0 26 6 2 149 101 77 138 196 156 158 123 48 69 34 75 80 22 116 19
0 0 0 0 0 0 0 0 0 0 0 0 0 0 0 0 0 0 0 0 0 0 0 0 0 0 0 0 25 135 154 120 149 161 136 94 99 54 24 44 26 16 9
0 0 0 0 0 0 0 0 0 0 0 0 0 0 0 0 0 0 0 0 0 0 0 0 0 0 0 0 0 83 123 124 178 197 219 187 161 112 41 80 78 42 0

GFSMA_con_mlcape_276.txt.gz
CAPE
320 208 149 31 31 24 8 1 0 37 43 43 40 46 71 163 247 156 93 178 223 276 348 277 706 1306 1707 1403 1438 1501 1498 1496 1458 1477 1481 1348 1377 1278 1157 1302 1340 1486 1407
382 441 137 24 54 120 118 56 35 48 48 78 93 124 126 132 107 144 143 188 246 169 352 266 582 769 1411 1375 1359 1576 1382 1302 1532 1656 1578 1625 1594 1355 1354 1353 1320 1345 1238
500 466 316 213 94 107 202 233 174 82 59 104 75 72 138 157 182 138 141 178 328 443 438 267 507 886 682 1106 1484 1528 1623 1513 1198 1393 1559 1505 1358 1307 931 946 791 630 657
592 552 400 296 194 176 143 208 251 163 114 103 50 27 132 194 143 218 188 171 173 202 223 273 297 296 480 1062 1384 1713 1375 1297 1522 1139 905 1124 1481 1498 1331 945 665 669 773
233 327 533 435 319 326 469 443 404 358 279 217 141 109 63 248 211 91 64 158 235 216 175 236 320 390 454 532 792 1209 1671 1288 928 1285 1355 1060 697 904 1124 1374 898 721 852
18 94 243 390 285 127 386 488 604 515 442 408 207 190 134 76 137 89 45 5 70 229 269 237 329 419 507 424 548 886 1279 1523 1215 854 874 871 759 533 620 763 847 898 967
477 499 373 318 171 172 206 312 531 752 589 472 363 315 219 198 112 129 131 45 4 94 248 215 195 330 417 573 397 644 713 1225 1438 1339 984 960 745 601 486 549 657 806 970
257 126 99 133 126 68 61 326 467 184 224 288 291 167 141 109 122 140 105 56 98 60 154 236 232 276 331 321 556 473 510 565 1342 1643 1559 1338 1043 872 663 503 479 554 672
299 343 192 421 246 470 430 513 494 180 112 115 77 113 87 63 92 166 195 144 132 171 182 211 253 318 297 244 378 583 390 351 736 1586 1551 1526 1235 1061 984 936 813 543 471
422 439 505 553 371 341 516 367 205 250 83 53 28 40 68 70 104 76 82 143 157 120 187 215 282 260 358 352 327 450 478 417 383 403 743 1472 1369 978 842 912 951 916 804
612 621 513 304 180 284 280 273 206 204 182 50 26 48 87 91 98 143 134 132 105 69 95 247 253 210 223 412 286 351 474 563 559 426 325 350 515 1033 890 755 971 990 1103
19 48 116 163 90 51 78 145 238 232 189 1 16 87 133 176 123 131 109 128 90 95 104 208 297 327 196 216 285 278 337 457 540 460 441 376 364 361 613 1019 1245 1272 1264
0 0 4 20 36 8 0 0 134 187 175 52 24 1 93 116 123 110 111 141 96 70 39 96 196 267 295 276 225 380 409 411 286 330 302 393 366 384 390 455 828 1348 1444
31 68 69 1 0 0 0 30 0 0 6 63 56 30 1 8 108 121 148 64 40 3 12 31 117 156 248 312 274 110 72 223 296 280 199 284 364 364 388 402 401 836 1268
91 220 33 0 0 0 0 0 0 0 0 0 0 11 7 15 0 2 16 110 58 5 3 50 107 122 52 68 138 150 208 176 150 98 24 3 136 198 279 372 336 293 443
152 93 24 0 0 0 0 0 0 0 0 0 0 0 0 0 0 0 0 4 25 54 27 118 86 67 33 135 236 212 160 100 110 125 77 0 11 122 195 185 261 316 232
140 50 32 3 0 0 0 0 0 0 0 0 0 0 0 0 0 0 0 0 0 12 3 2 3 70 72 35 50 122 128 75 40 66 104 64 33 71 61 95 117 137 202
170 51 36 20 14 0 0 0 0 0 0 0 0 0 0 0 0 0 0 0 0 0 5 0 0 0 4 4 31 53 100 79 15 7 0 2 20 32 4 56 69 54 93
388 192 24 24 0 0 0 0 0 0 0 0 0 0 0 0 0 0 0 0 0 0 0 0 0 0 8 37 47 51 30 24 73 70 20 0 0 0 0 0 0 0 6
502 222 8 0 0 4 0 0 0 0 0 0 0 0 0 0 0 0 0 0 0 0 3 0 0 0 0 0 0 0 0 0 0 35 84 15 0 3 41 0 0 4 34
72 2 0 0 0 0 0 0 0 0 0 0 0 0 0 0 0 0 0 0 0 0 0 7 1 0 0 0 0 0 0 0 0 14 33 89 104 83 86 30 24 6 0
0 0 0 0 0 0 0 0 0 0 0 0 0 0 0 0 0 0 0 0 0 0 0 0 0 0 0 0 0 0 0 0 10 101 47 25 141 90 132 143 61 14 0
0 0 0 0 0 0 0 0 0 0 0 0 0 0 0 0 0 0 0 0 0 0 0 0 0 1 0 0 0 0 0 0 0 84 91 68 20 6 60 60 58 66 11
0 0 0 0 0 0 0 0 0 0 0 0 0 0 0 0 0 0 0 0 0 0 0 0 0 0 0 0 0 0 0 0 16 38 177 40 104 32 35 62 135 88 19
0 0 0 0 0 0 0 0 0 0 0 0 0 0 0 0 0 0 0 0 0 0 0 0 0 0 0 0 0 0 0 0 0 0 54 131 91 54 13 34 57 110 60
0 0 0 0 0 0 0 0 0 0 0 0 0 0 0 0 0 0 0 0 1 0 0 0 0 0 0 0 0 0 0 0 0 0 26 134 68 71 20 2 5 34 38

GFSMA_con_mlcape_279.txt.gz
CAPE
210 280 259 259 80 5 6 4 0 1 13 55 104 85 54 61 78 181 138 58 237 279 588 1090 1303 1201 1151 1231 1332 1477 1488 1458 1464 1487 1433 1269 1047 1186 1302 1398 1460 1517 1376
348 309 296 227 144 39 25 26 16 52 1 57 71 77 92 116 122 153 170 109 239 197 283 353 538 776 1028 1118 1524 1447 1462 1486 1494 1481 1487 1424 1258 1248 1199 1328 1421 1560 1414
497 454 350 278 189 96 71 141 114 102 96 61 76 143 145 148 160 109 131 135 164 232 216 228 365 350 606 941 1327 1382 1404 1563 1411 1521 1514 1445 1321 1272 1116 1030 1322 1310 1425
465 380 403 386 234 200 143 115 119 178 204 100 104 132 137 109 133 112 97 111 135 204 325 382 303 393 378 483 922 1188 1414 1559 1395 1199 1289 1439 1454 1312 1189 985 936 1047 964
613 521 469 129 65 183 191 213 205 173 164 181 161 128 151 177 127 176 114 131 140 168 177 233 352 357 299 458 428 592 1167 1486 1528 1512 1204 1025 994 1376 1420 1285 976 822 746
62 45 165 386 258 165 33 3 188 311 268 324 365 355 314 222 174 148 109 96 114 100 167 175 184 228 258 337 367 790 681 1143 1536 1239 1132 1129 1012 754 739 1059 1250 1292 950
193 429 285 414 248 136 38 113 313 305 186 237 343 293 241 239 221 182 106 44 49 47 44 90 164 191 218 235 326 414 565 464 1299 1475 1099 915 928 878 569 442 530 725 803
445 217 175 207 254 214 125 140 266 248 123 139 142 94 54 86 162 199 182 134 69 53 61 61 107 156 201 244 272 356 433 360 1261 1265 1356 1315 914 641 685 398 288 355 460
344 348 256 293 208 127 168 376 303 217 136 104 75 99 30 53 36 87 120 132 115 87 82 86 69 82 143 209 250 389 369 323 321 602 1181 1386 1387 987 817 731 518 322 310
461 444 645 354 121 222 237 264 363 235 196 96 46 50 46 17 22 44 49 132 125 141 123 111 132 98 157 163 205 306 413 347 330 322 528 1442 1502 910 968 728 758 727 560
618 386 425 173 47 46 60 76 188 217 179 89 12 18 78 84 17 79 98 100 96 73 87 144 98 104 145 184 232 188 366 367 322 328 314 287 1095 919 717 705 738 854 837
0 15 5 12 8 6 0 60 69 91 125 94 44 31 8 151 190 130 80 93 79 88 81 97 142 183 171 183 205 316 332 311 421 325 332 301 287 307 428 609 889 1021 1073
0 0 0 0 0 0 0 0 0 0 0 4 10 14 2 14 122 93 113 110 110 77 59 48 48 158 193 225 220 333 273 320 390 328 361 386 376 378 311 297 416 902 1175
17 40 0 0 0 0 0 0 0 0 0 0 0 0 0 3 0 10 99 72 60 8 3 2 15 1 82 161 270 333 335 254 277 237 165 238 247 206 296 422 414 411 555
110 67 0 0 0 0 0 0 0 0 0 0 0 0 0 0 0 1 0 5 20 5 0 20 25 25 100 113 86 50 165 109 86 155 120 96 107 149 114 164 230 382 428
168 41 0 0 0 0 0 0 0 0 0 0 0 0 0 0 0 0 0 5 6 15 13 33 12 3 27 21 25 15 119 179 124 79 6 53 68 28 23 4 19 206 303
136 64 31 0 0 0 0 0 0 0 0 0 0 0 0 0 0 0 0 0 0 0 0 0 0 0 0 0 23 22 59 90 99 71 30 42 28 23 12 7 61 129 135
193 23 17 7 0 0 0 0 0 0 0 0 0 0 0 0 0 0 0 0 0 0 0 0 0 0 0 2 0 13 30 57 61 33 39 28 17 40 30 17 36 54 55
347 78 0 0 0 0 0 0 0 0 0 0 0 0 0 0 0 0 0 0 0 0 1 5 0 0 0 0 0 9 12 20 22 15 4 8 18 0 0 3 3 6 3
163 0 0 0 0 0 0 0 0 0 0 0 0 0 0 0 0 0 0 0 0 0 0 0 1 1 0 0 0 0 0 0 0 0 5 24 12 15 5 0 0 0 0
6 0 0 0 0 0 0 0 0 0 0 0 0 0 0 0 0 0 0 0 0 0 0 0 0 0 0 0 0 0 0 0 0 0 0 0 1 4 21 2 0 20 7
0 0 0 0 0 0 0 0 0 0 0 0 0 0 0 0 0 0 0 0 0 0 0 0 0 0 0 3 0 0 0 0 0 0 36 15 19 21 46 75 59 44 29
0 0 0 0 0 0 0 0 0 0 0 0 0 0 0 0 0 0 0 0 0 0 0 0 0 0 0 0 0 0 0 0 0 0 0 0 11 0 49 62 97 0 0
0 0 0 0 0 0 0 0 0 0 0 0 0 0 0 0 0 0 0 0 0 0 0 0 0 0 0 0 0 0 0 0 0 0 11 7 0 0 3 26 13 16 8
0 0 0 0 0 0 0 0 0 0 0 0 0 0 0 0 0 0 0 0 0 0 0 0 0 0 0 0 0 0 0 0 0 0 0 1 0 0 0 1 1 8 1
0 0 0 0 0 0 0 0 0 0 0 0 0 0 0 0 0 0 0 0 0 0 0 0 0 0 0 0 0 0 0 0 0 0 0 25 16 1 0 0 2 1 0

GFSMA_con_mlcape_285.txt.gz
CAPE
400 327 240 291 401 181 183 92 30 6 107 128 100 135 121 22 180 352 320 218 283 395 250 1075 1189 1514 888 1071 1209 1583 1542 1648 1425 1356 780 623 531 980 1143 1269 1221 1052 1301
629 631 744 644 267 183 165 144 165 148 167 145 123 200 177 91 59 169 291 178 246 512 587 565 655 1266 1341 836 804 906 1086 1452 1532 1411 1151 1246 551 484 702 913 1172 1227 1231
735 845 955 1022 1001 806 358 171 91 188 216 346 214 468 250 191 284 169 112 141 261 437 566 247 198 605 1167 1280 1173 1003 855 874 1225 1114 1113 1234 1371 930 547 805 1104 1259 1355
985 966 895 896 923 777 674 464 329 313 364 384 509 314 202 134 150 233 234 152 120 188 392 446 362 345 592 744 650 1087 1245 1285 1039 1027 990 1044 1043 1215 1211 1158 1137 1199 1193
977 951 831 675 712 504 333 465 279 304 162 97 315 346 279 285 215 172 313 440 213 118 209 283 259 256 282 492 740 581 727 955 1210 890 768 1039 1018 1031 1010 1029 916 996 1024
1066 500 677 840 849 466 617 433 202 381 365 482 267 284 364 479 671 608 248 333 235 185 164 273 401 249 240 346 669 756 665 531 1084 895 881 1076 1107 1095 934 938 944 855 964
855 748 727 728 797 484 585 498 522 479 633 729 280 320 246 505 565 611 775 430 428 407 324 280 411 333 320 274 299 374 502 490 453 603 1004 1152 1314 1142 1065 935 899 825 846
1042 705 774 740 800 653 380 552 645 624 498 559 257 321 192 179 381 259 462 559 488 501 448 365 359 401 335 313 419 464 367 375 412 412 327 510 1082 1313 1129 976 952 796 844
830 959 846 795 540 559 520 600 570 393 299 406 90 50 142 68 45 96 132 441 573 594 415 242 317 417 445 318 206 317 259 227 242 348 437 392 333 629 1017 1137 927 699 676
837 1016 1015 439 241 214 179 257 454 488 335 154 179 155 81 89 14 54 15 195 644 701 597 307 228 274 437 515 408 249 304 355 294 276 261 460 353 330 566 917 1098 937 667
1137 824 481 170 174 98 97 199 43 60 159 79 65 88 115 176 166 68 103 135 169 214 542 463 182 286 508 416 386 538 400 256 219 199 249 263 335 378 370 451 722 969 1001
236 35 27 6 0 5 80 0 0 0 0 34 45 91 82 51 51 81 38 101 114 198 424 102 143 163 385 590 638 472 300 307 269 226 268 262 307 338 512 571 559 894 971
0 0 0 0 0 139 0 0 0 0 0 0 0 0 7 61 84 88 126 144 103 140 223 80 89 123 98 73 95 330 375 325 275 183 269 276 242 228 229 313 560 901 937
56 43 0 0 7 65 0 0 0 0 0 0 0 0 0 0 0 80 66 54 0 176 75 3 37 229 173 235 66 33 133 267 227 148 183 134 161 223 278 302 357 454 444
292 138 52 0 38 0 0 0 0 0 0 0 0 0 0 0 0 0 10 21 14 6 9 158 122 51 16 98 133 69 7 140 149 134 133 146 133 114 138 93 189 266 307
569 243 157 92 112 49 0 0 0 0 0 0 0 0 0 0 0 1 0 4 32 6 6 8 10 26 61 86 61 99 159 72 55 36 33 44 36 65 77 112 146 141 127
549 412 267 287 209 115 0 0 0 0 0 0 0 0 0 0 0 0 0 0 1 4 13 5 3 38 104 99 96 148 118 79 159 47 15 23 30 18 72 56 53 45 138
413 376 315 140 40 1 0 0 0 1 0 0 0 2 1 0 0 0 0 0 0 0 4 1 3 2 17 28 33 13 10 71 122 124 97 45 16 20 31 15 26 28 16
444 165 40 2 0 0 0 0 0 0 0 0 0 0 3 3 2 0 0 0 0 0 0 0 0 1 10 16 7 10 8 0 0 0 0 0 2 1 0 0 0 0 4
38 0 0 0 0 0 0 0 0 0 0 0 0 0 1 0 0 0 0 0 0 0 0 0 0 0 0 2 0 15 6 1 0 0 0 0 0 0 0 0 0 0 0
0 0 0 0 0 0 0 0 0 0 0 0 0 0 0 0 0 0 0 0 1 1 0 0 0 0 0 0 0 0 0 0 0 0 0 0 31 0 0 0 0 0 0
0 0 0 0 0 0 0 0 0 0 0 0 0 0 0 0 0 0 0 0 0 0 1 2 3 3 1 3 11 6 0 0 0 0 0 0 0 0 0 0 26 15 0
0 0 0 0 0 0 0 0 0 0 0 0 0 0 0 0 0 0 0 0 0 0 0 1 2 6 6 7 3 3 4 11 8 6 2 0 0 0 0 0 0 0 0
0 0 0 0 0 0 0 0 0 0 0 0 0 0 0 0 0 0 0 0 0 0 0 0 0 0 1 0 2 2 2 5 1 1 28 22 5 1 0 0 0 0 0
0 0 0 0 0 0 0 0 0 0 0 0 0 0 0 0 0 0 0 0 0 0 0 0 0 0 0 0 0 0 0 1 0 2 9 44 22 37 30 20 8 1 0
0 0 0 0 0 0 0 0 0 0 0 0 0 0 0 0 0 0 0 0 0 0 0 0 0 0 0 0 0 0 0 5 4 2 3 3 5 16 18 0 27 138 279

GFSMA_con_mlcape_288.txt.gz
CAPE
1085 1149 794 347 620 325 125 92 43 44 84 217 190 93 85 102 3 9 208 451 286 264 422 533 1050 1338 1347 1123 1492 1436 1008 1242 1432 1252 641 656 735 913 1125 1350 1293 1085 1138
1129 1190 1178 1206 1294 1207 631 293 84 90 439 581 268 143 203 339 116 0 13 267 337 257 344 466 451 1290 1504 1260 1220 1371 1388 1230 1409 1292 1169 733 659 880 1006 1231 1240 1232 1128
1321 1629 1267 1296 1101 1048 1483 1060 180 10 342 881 723 459 288 549 278 109 80 70 104 248 175 628 831 626 887 1406 1301 935 868 936 1015 1232 1257 1029 796 460 760 839 1043 1134 1176
1983 1872 1333 1068 1149 1147 1119 1064 750 784 697 948 575 863 900 831 446 417 529 173 88 31 277 389 537 363 420 487 1412 1190 993 787 751 1042 847 974 1092 1048 523 459 797 900 1090
1543 1331 1211 998 1345 970 957 812 895 692 526 436 663 399 822 872 722 472 429 498 398 268 29 83 251 242 297 383 1195 675 519 920 1013 934 977 899 1016 1013 1210 1213 906 882 994
1279 1615 866 1370 1182 1064 927 800 609 549 621 576 783 474 523 604 539 523 700 567 639 498 220 87 323 354 257 321 643 385 455 281 463 955 805 803 910 960 974 1058 1151 1143 1114
1978 1442 1310 1119 965 1028 791 896 607 584 592 848 504 99 100 130 287 712 656 653 738 468 576 278 238 293 453 229 217 413 325 638 400 548 986 632 712 898 978 929 907 867 950
1842 1510 1466 1109 1120 521 642 501 498 171 57 201 176 85 30 317 489 429 240 664 805 823 608 616 552 509 581 515 467 255 289 428 852 510 300 429 452 569 947 978 805 760 809
1870 1740 1530 1047 847 236 9 27 46 188 23 89 520 362 180 243 251 221 240 221 657 741 693 693 615 761 639 534 527 502 468 289 330 445 378 233 261 444 615 870 932 767 700
1650 1696 1370 618 38 0 24 21 46 296 269 88 103 344 302 210 167 174 231 106 556 533 730 840 675 599 618 722 646 671 377 322 238 286 305 292 304 164 236 349 719 1005 831
1820 1398 336 0 0 0 33 100 0 0 0 2 15 100 152 206 192 252 196 394 161 766 199 640 678 248 216 325 604 797 733 311 268 242 221 288 273 205 182 205 349 699 898
1017 118 18 0 13 24 55 0 0 0 0 0 0 0 7 35 115 128 193 288 352 390 425 789 248 202 287 535 698 632 515 526 282 197 147 151 171 231 313 310 365 364 456
29 112 118 76 132 287 0 0 0 0 0 0 0 0 0 6 5 11 68 130 204 393 470 540 638 294 164 155 174 95 39 94 261 222 207 172 167 216 224 250 353 559 446
50 510 243 153 290 231 0 0 25 9 1 2 1 0 0 1 4 7 16 42 0 19 104 451 108 535 577 705 611 88 181 52 33 126 166 142 125 204 211 192 215 198 307
570 691 394 265 407 278 5 14 28 22 21 20 3 0 0 0 3 6 8 8 37 12 0 130 35 100 175 156 186 88 314 312 6 0 77 102 94 91 121 141 174 190 157
924 957 690 471 490 506 213 131 29 32 16 8 0 5 3 0 0 1 1 2 6 13 5 5 4 10 68 139 170 193 219 129 71 28 33 13 36 108 115 91 68 80 86
1443 1254 1015 832 601 484 330 177 68 25 12 4 5 10 10 4 0 0 0 0 0 1 2 0 2 6 2 20 29 61 60 201 161 63 48 33 2 1 9 8 14 49 78
1388 1174 1005 744 413 230 105 41 14 8 2 3 1 2 3 0 0 0 0 0 0 0 0 0 0 0 0 1 18 12 31 40 54 18 1 1 1 0 0 0 12 27 28
1327 981 678 436 222 50 9 3 0 0 0 0 0 0 0 0 0 0 0 0 0 0 0 0 0 0 0 0 0 0 5 15 25 26 1 0 0 0 0 0 0 0 0
686 438 205 23 0 0 0 0 0 0 0 0 0 0 0 0 0 0 0 0 0 0 0 0 0 0 0 0 0 0 0 0 0 0 0 0 2 0 0 0 0 0 0
239 15 0 0 0 0 0 0 0 0 0 0 0 0 0 0 0 0 0 0 0 0 0 0 0 0 0 0 0 1 0 0 0 0 0 0 3 6 5 0 0 0 0
1 0 0 0 0 0 0 0 0 0 0 0 0 0 0 0 0 0 0 0 0 0 0 0 0 0 0 1 5 9 9 7 0 0 1 0 0 0 0 0 0 2 2
0 0 0 0 0 0 0 0 0 0 0 0 0 0 0 0 0 0 0 0 0 0 0 0 0 0 0 0 1 4 9 5 9 9 4 0 0 0 0 0 0 0 0
0 0 0 0 0 0 0 0 0 0 0 0 0 0 0 0 0 0 0 0 0 0 0 0 0 0 0 0 0 0 0 5 0 0 27 21 6 6 13 12 6 2 0
0 0 0 0 0 0 0 0 0 0 0 0 0 0 0 0 0 0 0 0 0 0 0 0 0 0 0 0 0 0 0 0 0 0 0 37 15 2 9 6 2 16 12
0 0 0 0 0 0 0 0 0 0 0 0 0 0 0 0 0 0 0 0 0 0 0 0 0 0 0 0 0 4 7 3 4 2 0 2 0 0 8 1 13 3 1

GFSMA_con_mlcape_291.txt.gz
CAPE
898 1104 1037 1065 842 964 582 403 253 26 13 139 471 232 79 81 53 17 115 239 271 182 167 536 1060 1258 1604 1335 1410 1277 993 1057 1340 1215 746 565 581 349 643 1190 1173 1338 1185
1333 1321 1364 1408 1601 1333 1214 1006 983 301 218 666 819 367 189 129 207 175 0 0 50 328 337 234 498 787 1166 1594 1294 1430 1308 857 1050 1077 988 665 584 685 911 1176 1269 1271 1038
1467 1556 1394 1321 1607 853 1692 1331 1206 478 65 123 747 628 378 267 418 730 218 53 2 353 298 424 341 551 959 1504 1528 1359 1617 1235 923 1082 1089 841 624 658 1003 1032 1214 1185 1014
1466 1894 1527 1075 1572 1110 969 1175 1277 967 860 767 825 895 859 1069 888 681 741 468 145 55 77 457 361 496 442 983 1370 1354 1164 1151 708 856 925 965 753 525 541 930 1042 1079 961
1587 1482 1212 1365 1726 1045 1124 1237 1519 1302 1076 587 645 828 781 669 627 735 524 413 651 323 126 58 432 437 611 679 496 933 1212 924 1234 980 794 809 961 983 712 421 603 799 979
2011 1614 1173 1649 1217 697 994 996 850 802 845 600 458 305 587 500 544 308 250 458 377 666 535 248 77 214 229 525 516 510 1106 775 432 937 936 1073 832 974 945 848 704 575 713
1864 1988 1301 1158 1270 617 708 716 484 116 145 539 262 22 1 54 73 399 482 707 441 588 671 579 444 212 533 304 283 468 1043 374 270 346 684 755 936 873 1115 866 806 879 1030
1628 1533 1497 1216 1336 105 151 260 22 44 28 171 137 25 25 213 596 486 162 260 470 641 408 707 617 553 323 712 387 194 478 559 489 296 253 553 445 582 855 928 802 789 778
1613 1641 1662 1173 287 53 4 57 24 181 155 102 181 521 127 217 240 338 720 224 174 357 378 378 566 642 540 558 433 544 233 243 267 511 492 271 264 268 369 547 741 827 764
1891 1762 1440 267 54 0 6 26 10 40 9 11 11 83 165 170 117 227 322 450 327 427 321 415 428 358 643 251 338 496 406 308 203 188 329 386 196 188 210 275 350 693 899
1886 1371 154 5 0 0 68 39 0 0 0 0 0 0 0 9 23 122 71 131 467 666 382 343 273 393 524 727 436 470 366 366 292 217 225 263 273 134 179 195 178 280 528
1152 144 87 141 183 356 18 1 1 0 0 0 0 0 0 0 3 1 4 3 23 235 924 1339 741 242 59 379 380 398 429 445 363 369 246 191 190 254 180 270 261 198 236
115 232 396 318 396 337 100 94 160 52 12 13 8 0 0 0 0 1 1 2 0 1 547 510 866 441 386 120 205 202 210 165 67 72 107 132 164 47 326 189 326 334 344
191 643 421 413 464 270 155 155 190 3 19 25 9 3 0 0 0 0 1 0 0 0 60 245 174 209 146 237 485 191 260 143 100 39 22 19 56 164 125 88 146 180 293
822 745 517 476 349 281 179 146 211 119 11 8 0 0 0 0 0 0 0 0 0 1 0 5 23 12 0 40 162 147 239 266 194 146 30 2 15 84 103 121 159 183 160
1334 1139 807 483 374 434 442 216 53 55 6 3 0 8 3 0 0 0 0 0 0 0 0 0 0 0 0 0 56 81 115 7 83 63 13 0 3 10 12 0 15 135 144
1412 1434 1220 951 559 420 315 133 27 27 1 3 1 2 2 0 0 0 0 0 0 0 0 0 0 0 0 0 0 7 2 0 23 78 1 0 0 0 10 18 55 80 71
1579 1497 1058 814 397 164 92 11 3 1 1 0 0 0 0 0 0 0 0 0 0 0 0 0 0 0 0 0 13 0 0 0 3 22 13 0 0 0 0 0 0 0 0
1226 1091 862 578 243 27 0 0 0 1 0 0 0 0 0 0 0 0 0 0 0 0 0 0 0 0 0 0 0 0 0 0 0 0 13 0 0 0 0 0 0 0 0
1317 780 521 238 6 0 0 0 0 0 0 0 0 0 0 0 0 0 0 0 0 0 0 0 0 0 0 0 0 0 0 0 0 0 0 0 0 0 3 4 2 0 0
641 334 56 0 0 0 0 0 0 0 0 0 0 0 0 0 0 0 0 0 0 0 0 0 0 0 0 0 0 0 0 0 0 0 0 0 0 0 0 4 21 15 6
72 0 0 0 0 0 0 0 0 0 0 0 0 0 0 0 0 0 0 0 0 0 0 0 0 0 0 0 0 0 0 0 0 0 0 0 0 0 0 0 0 0 0
0 0 0 0 0 0 0 0 0 0 0 0 0 0 0 0 0 0 0 0 0 0 0 0 0 0 0 0 0 0 0 0 0 0 0 0 0 0 0 9 9 1 0
0 0 0 0 0 0 0 0 0 0 0 0 0 0 0 0 0 0 0 0 0 0 0 0 0 0 0 0 0 0 0 0 0 0 0 0 0 0 0 0 0 0 0
0 0 0 0 0 0 0 0 0 0 0 0 0 0 0 0 0 0 0 0 0 0 0 0 0 0 0 0 0 0 0 0 0 0 0 2 0 0 0 0 0 0 0
0 0 0 0 0 0 0 0 0 0 0 0 0 0 0 0 0 0 0 0 0 0 0 0 0 0 0 1 0 0 0 0 0 0 0 1 5 3 4 0 0 0 0